Вернуться в каталог

STARLINK-31289

АктивенСвязьVLEO
NORAD 59173·PAYLOAD·🇺🇸 United States

Запущен Mar 4, 2024 с Cape Canaveral Space Force Station

Loading…

Ближайшие Пролёты (ближайшие 24 часа)

TLE

СвежийSource: CelesTrak SupGP

Эпоха: Sep 15, 2026, 02:04 UTC

1 59173C 24044X   26258.08659722  .00050991  00000+0  18472-2 0  2586
2 59173  42.9994 117.4452 0001427 277.4047 346.3335 15.27547739    11

Отслеживайте STARLINK-31289 в реальном времени с AllMySat

Download on the App Store